sat.trackr.live / text

‹ back to catalog

QZS-3 (QZSS/PRN 199)

NORAD 42917 · 2017-048A

PAYLOAD ACTIVE UNKNOWN

§ Identity

Operator
Country
JPN
Launch date
2017-08-19
Launch site
TANSC
Launch vehicle
Mass (kg)
RCS (m²)

Purposes: comms, nav

External: N2YO · Heavens-Above · Gunter

§ Orbital elements

Epoch: 2026-05-25T00:55:28.324128Z

Period
1,436.16 min
Inclination
0.0888°
Eccentricity
0.0002042
Mean motion
1.00267366 rev/d
Perigee alt
35,779.2 km
Apogee alt
35,796.4 km
Semi-major
42,166.0 km
B*
0.0000e+0
RAAN
121.5297°
Arg perigee
299.6972°
Mean anomaly
322.2578°
Rev number
3,202

§ Raw data

QZS-3 (QZSS/PRN 199)1 42917U 17048A   26145.03852227 -.00000351  00000+0  00000+0 0  99982 42917   0.0888 121.5297 0002042 299.6972 322.2578  1.00267366 32025

JSON: /api/v1/satellites/42917 · /tle

For live sub-satellite position, see the globe view (requires WebGL).

§ Visibility from observer

Set your observer location to see the next 7 days of passes ≥ 10°. The values pass through the URL so the page stays shareable.

No JS? Fill the form by hand. The geolocation button needs JavaScript.